Время (UTC), дата Ветер
(°,м/с) 
Видим.   Явления Облачность Т
(°С)
Тd
(°С)
f(%) Тe
(°С)
Pmin
(гПа)
dP
(гПа)
Po
(мм)
O2
(г/м3)
Тmin Tmax R s Состояние
почвы
00 01.09.15 тихо ()   20000 м    ясно 
+8.4 +7.3 93 +8  1018.8  -0.4  739  288  +7.3        сухая 
03 01.09.15 080 (В) 20000 м    ясно 
+15.8 +9 64 +17  1017.5  -0.5  739  280           
06 01.09.15 060 (СВ) 20000 м    ясно 
+22.4 +10.6 47 +25  1015.1  -1.5  738  273           
09 01.09.15 090 (В) 20000 м    6/0 верхняя 
[Ci fib]
+26.1 +12.1 42 +31  1013.1  -1.6  736  269           
12 01.09.15 тихо ()   20000 м    6/3 2000 м средняя, верхняя 
[Ac lent|Ci fib]
+23.1 +13.3 54 +29  1013  -0.4  736  271    +26.3       
15 01.09.15 240 (ЮЗ) 4000 м    3/0 верхняя 
[Ci fib]
+15.7 +11 74 +19  1014.4  0.5  737  279           
18 01.09.15 230 (ЮЗ) 4000 м    9/0 верхняя 
[Ci fib]
+13.3 +10 80 +17  1014.4  -0.3  736  281           
21 01.09.15 240 (ЮЗ) 4000 м    ясно 
+10.8 +8.8 87 +12  1014.1  -0.5  736  284           
03 02.09.15 060 (СВ) 20000 м    ясно 
+17.2 +11.3 68 +22  1013.2  -0.2  736  277           
06 02.09.15 090 (В) 20000 м    ясно 
+23.7 +12.1 48 +28  1011.9  -0.6  735  270           
09 02.09.15 090 (В) 20000 м    4/3 600 м верхняя 
[Cu med, cong|Ci fib]
+27.2 +12 39 +32  1010.8  -0.7  735  267           
12 02.09.15 210 (ЮЗ) 20000 м    1/1 600 м 
[Cu med, cong]
+23.5 +14.8 58 +32  1011.3  0.1  735  270    +27.5       
15 02.09.15 тихо ()   4000 м    ясно 
+18.1 +12.8 71 +24  1012.5  0.6  735  275           
18 02.09.15 220 (ЮЗ) 4000 м    ясно 
+14.5 +11.7 83 +20  1012.8  -0.1  735  279           
21 02.09.15 250 (З) 4000 м    ясно 
+12.4 +10.9 91 +17  1012.7  -0.4  735  281           
00 03.09.15 тихо ()   10 км    ясно 
+11.1 +10.5 96 +13  1013.1  0.3  735  283  +10.5        сухая 
03 03.09.15 060 (СВ) 20000 м    3/0 верхняя 
[Ci fib]
+17.8 +12.2 70 +24  1011.6  -0.8  735  276           
06 03.09.15 090 (В) 20000 м    4/0 верхняя 
[Ci fib]
+24.5 +12.6 47 +30  1008.5  -2.2  733  269           
09 03.09.15 090 (В) 20000 м    9/0 верхняя 
[Ci fib]
+26.1 +9.7 36 +27  1007.3  -1  732  268           
12 03.09.15 110 (В) 20000 м    3/0 верхняя 
[Ci fib]
+23.9 +12 47 +28  1006.7  -0.8  732  269    +27.2       
15 03.09.15 тихо ()   4000 м    ясно 
+16.7 +12 74 +21  1007.8  0.2  732  276           
18 03.09.15 240 (ЮЗ) 4000 м    3/0 верхняя 
[Ci fib]
+14.3 +11.3 82 +19  1007.2  -0.7  731  278           
21 03.09.15 250 (З) 4000 м    4/3 600 м кучево-дожд., верхняя 
[Cb cap|Ci fib]
+12.4 +10.5 88 +16  1006.9  -0.6  731  280           
00 04.09.15 230 (ЮЗ) 20000 м    8/4 2000 м средняя, верхняя 
[Ac trans|Ci fib]
+11.6 +10.6 94 +15  1007.7  0.7  731  281  +11.3        сухая 
03 04.09.15 350 (С) 20000 м    9/5 2000 м средняя, верхняя 
[Ac As|Ci fib]
+18.9 +13.1 69 +26  1008.2  1.3  732  273           
06 04.09.15 270 (З) 20000 м    10/8 600 м кучево-дожд., средняя 
[Cb cap|Ac As]
+17.1 +12.8 76 +24  1010  1.6  734  276           
09 04.09.15 270 (З) 20000 м  в посл. час ливневой дождь  10/10 600 м кучево-дожд. 
[Cb cap]
+14.5 +11.9 84 +20  1011  0.6  734  278           
12 04.09.15 250 (З) 20000 м  в посл. час ливневой дождь  10/10 600 м кучево-дожд. 
[Cb cap]
+13.4 +12.1 92 +20  1011.2  734  280    +19  0.8     
15 04.09.15 260 (З) 4000 м  слаб. ливневой дождь  10/10 600 м кучево-дожд. 
[Cb cap]
+12.6 +11.7 94 +18  1011.4  0.1  734  280           
18 04.09.15 250 (З) н/о  ливневой дождь  10/10 600 м кучево-дожд. 
[Cb cap]
+11.2 +10.6 96 +14  1011.1  -0.3  734  282           
21 04.09.15 250 (З) 4000 м  слаб. ливневой дождь  10/10 600 м кучево-дожд. 
[Cb cap]
+9.7 +8.9 95 +10  1012.2  0.8  734  284           
00 05.09.15 260 (З) 20000 м  в посл. час ливневой дождь  10/10 600 м кучево-дожд. 
[Cb cap]
+8 +5.8 86 +7  1014.6  2.1  736  287  +8    15    влажная 
12 05.09.15 250 (З) 20000 м  {ливн. осадки}  10/8 1000 м верхняя 
[Cu hum|Cs]
+11.2 +5.6 68 +11  1019.4  740  285    +14  0.0     
15 05.09.15 230 (ЮЗ) 4000 м    9/0 верхняя 
[Ci fib]
+10 +5.6 74 +10  1020.8  1.2  741  287           
18 05.09.15 220 (ЮЗ) 4000 м    ясно 
+9.5 +5.6 77 +9  1020.3  -0.4  740  287           
21 05.09.15 230 (ЮЗ) 4000 м    6/0 верхняя 
[Ci fib]
+8.7 +6.3 85 +8  1020.1  -0.3  740  288           
00 06.09.15 220 (ЮЗ) 20000 м    9/6 600 м кучево-дожд., средняя, верхняя 
[Cb cap|Ac trans|Ci fib]
+9.2 +6.9 86 +8  1020.1  740  287  +8.1        влажная 
03 06.09.15 230 (ЮЗ) 20000 м    9/6 600 м кучево-дожд., средняя 
[Cb cap|Ac trans]
+12.6 +7.3 70 +13  1019.4  -0.3  740  284           
06 06.09.15 230 (ЮЗ) 20000 м  {ливн. осадки}  5/3 600 м верхняя 
[Cu med, cong|Ci fib]
+15.1 +7.7 61 +16  1018.1  -1  739  281           
09 06.09.15 260 (З) 10 км  слаб. ливневой дождь  10/10 600 м кучево-дожд. 
[Cb cap]
+10.6 +8.4 86 +12  1018.9  0.3  739  285           
12 06.09.15 240 (ЮЗ) 20000 м  слаб. ливневой дождь  9/9 600 м кучево-дожд. 
[Cb cap]
+9.3 +7.4 88 +10  1019.3  0.2  740  287    +16.7     
15 06.09.15 230 (ЮЗ) 4000 м    6/6 600 м кучево-дожд. 
[Cb cap]
+8.4 +6.7 89 +8  1020.1  0.8  740  288           
18 06.09.15 260 (З) 4000 м    8/8 600 м кучево-дожд. 
[Cb cap]
+8.2 +6.5 89 +9  1021.1  0.7  741  289           
21 06.09.15 250 (З) 4000 м  в посл. час ливневой дождь  9/9 600 м кучево-дожд. 
[Cb cap]
+8 +7.1 94 +9  1021.8  0.7  741  289           
00 07.09.15 230 (ЮЗ) 20000 м  {ливн. осадки}  9/5 600 м кучево-дожд., средняя, верхняя 
[Cb cap|Ac trans|Ci fib]
+6.8 +5.9 94 +8  1022.9  742  291  +6.5      влажная 
03 07.09.15 230 (ЮЗ) 20000 м    9/8 600 м кучево-дожд., средняя, верхняя 
[Cb cap|Ac trans|Ci fib]
+10.5 +6.7 77 +11  1022.9  0.5  742  287           
06 07.09.15 280 (З) 20000 м    10/10 600 м кучево-дожд. 
[Cb cap]
+11.9 +4.7 61 +12  1023.2  0.4  743  286           
09 07.09.15 330 (СЗ) 10 км  ливневой дождь  9/6 600 м кучево-дожд., средняя, верхняя 
[Cb cap|Ac trans|Ci fib]
+13 +6.8 66 +13  1023.1  743  284           
12 07.09.15 230 (ЮЗ) 20000 м  {ливн. осадки}  9/0 верхняя 
[Ci fib]
+9.3 +6.5 83 +9  1024.2  0.6  743  288    +13.2  0.8     
15 07.09.15 240 (ЮЗ) 4000 м    3/3 2000 м средняя 
[Ac trans]
+8.2 +6 86 +8  1025.5  1.1  744  290           
18 07.09.15 230 (ЮЗ) 4000 м    9/4 600 м кучево-дожд., средняя, верхняя 
[Cb cap|Ac trans|Ci fib]
+8.7 +6.3 85 +8  1025.7  0.4  744  290           
21 07.09.15 240 (ЮЗ) 4000 м    9/5 600 м кучево-дожд., средняя 
[Cb cap|Ac trans]
+8.1 +5.9 86 +8  1025.9  744  290           
00 08.09.15 230 (ЮЗ) 20000 м  слаб. ливневой дождь  9/8 600 м кучево-дожд., средняя 
[Cb cap|Ac trans]
+8 +6.3 89 +7  1026.5  0.6  745  290  +8    0.0    влажная 
03 08.09.15 230 (ЮЗ) 20000 м  {ливн. осадки}  8/3 600 м кучево-дожд., средняя, верхняя 
[Cb cap|Ac lent|Ci fib]
+12.8 +6.1 64 +13  1026.5  0.6  745  286           
06 08.09.15 240 (ЮЗ) 20000 м  {ливн. осадки}  8/6 600 м кучево-дожд., верхняя 
[Cb cap|Ci fib]
+14.1 +6.2 59 +15  1025.8  -0.5  745  284           
09 08.09.15 230 (ЮЗ) 20000 м    8/5 600 м кучево-дожд., средняя 
[Cb cap|Ac trans]
+15.7 +6.8 55 +17  1025.1  -0.5  744  282           
12 08.09.15 230 (ЮЗ) 20000 м    6/4 600 м кучево-дожд., средняя, верхняя 
[Cb cap|Ac lent|Ci fib]
+12.6 +8.2 75 +14  1026  0.5  745  285    +16.3  0.0     
15 08.09.15 250 (З) 4000 м    ясно 
+7.4 +5.4 87 +8  1027.6  0.8  745  291           
18 08.09.15 230 (ЮЗ) 4000 м    ясно 
+5.2 +4.3 94 +6  1028.2  0.4  746  294           
21 08.09.15 тихо ()   4000 м    ясно 
+3.5 +3.5 100 +4  1028.5  746  296           
00 09.09.15 тихо ()   10 км    ясно 
+2.6 +2.3 98 +3  1029.2  0.6  746  297  +1.8        влажная 
03 09.09.15 060 (СВ) 20000 м    ясно 
+11.4 +7 74 +13  1028.1  0.1  746  287           
06 09.09.15 230 (ЮЗ) 20000 м    3/3 600 м верхняя 
[Cu med, cong|Ci fib]
+17.7 +3 37 +18  1026.5  -0.9  745  282           
09 09.09.15 220 (ЮЗ) 20000 м    6/4 600 м верхняя 
[Cu med, cong|Ci fib]
+19.1 +4.6 38 +21  1025  -1.3  744  280           
12 09.09.15 220 (ЮЗ) 20000 м    10/5 600 м кучево-дожд., верхняя 
[Cb cap|Cs]
+14.8 +6.8 59 +15  1025.4  744  283    +19.3       
15 09.09.15 220 (ЮЗ) 4000 м    10/10 2000 м 
[Ac As]
+13.7 +4.4 53 +14  1025.6  0.1  745  285           
18 09.09.15 260 (З) 4000 м  слаб. ливневой дождь  10/8 600 м кучево-дожд., средняя 
[Cb cap|Ac As]
+12.4 +7 70 +13  1025.8  745  286           
21 09.09.15 220 (ЮЗ) 4000 м  слаб. ливневой дождь  10/10 600 м кучево-дожд. 
[Cb cap]
+10.6 +9 90 +10  1025  -1  744  287           
00 10.09.15 220 (ЮЗ) 20000 м  слаб. ливневой дождь  10/10 600 м кучево-дожд. 
[Cb cap]
+10.2 +9 92 +10  1024.4  -0.6  743  287  +10      влажная 
12 10.09.15 210 (ЮЗ) 6-12{14}  20000 м  {ливн. осадки}  9/4 600 м кучево-дожд., средняя, верхняя 
[Cb cap|Ac trans|Ci fib]
+15.9 +11.1 73 +18  1019.5  -1  740  280    +16.2  0.8     
15 10.09.15 220 (ЮЗ) 6-12{14}  4000 м    ясно 
+15.4 +9.4 67 +16  1019.2  -0.3  740  281           
18 10.09.15 220 (ЮЗ) 6-13{14}  4000 м    ясно 
+14.8 +9.2 69 +14  1018.5  -0.8  739  281           
21 10.09.15 220 (ЮЗ) 7-14{15}  4000 м    ясно 
+14.3 +8.6 69 +13  1016.6  -1.8  738  281           
00 11.09.15 220 (ЮЗ) 8-16{17}  20000 м    9/3 2000 м средняя, верхняя 
[Ac trans|Ci fib]
+14.1 +8.1 67 +13  1016  -0.8  737  281  +13.9        влажная 
03 11.09.15 210 (ЮЗ) 4{16}  20000 м    10/0 верхняя 
[Cs]
+17 +9.1 60 +17  1016.1  0.5  738  278           
06 11.09.15 230 (ЮЗ) 20000 м    10/0 верхняя 
[Cs]
+20.7 +9.3 48 +21  1014.1  -1.6  737  274           
09 11.09.15 280 (З) 20000 м    9/3 2000 м средняя, верхняя 
[Ac lent|Ci fib]
+23.5 +10.8 45 +26  1011.1  -2.5  735  271           
12 11.09.15 220 (ЮЗ) 20000 м    9/0 верхняя 
[Ci fib]
+21.9 +10.2 47 +24  1009.4  -1.9  733  272    +23.7       
18 11.09.15 220 (ЮЗ) 4{10}  4000 м    9/0 верхняя 
[Ci fib]
+18.6 +9.1 54 +20  1005.1  -2.4  730  274           
21 11.09.15 220 (ЮЗ) 5{10}  4000 м    8/0 верхняя 
[Ci fib]
+17.6 +8.5 55 +18  1002.7  -2.4  728  274           
00 12.09.15 220 (ЮЗ) 4{10}  20000 м    9/0 верхняя 
[Ci]
+17.1 +7.1 52 +17  1000.6  -2.1  727  274  +16.6        сухая 
03 12.09.15 220 (ЮЗ) 4{10}  20000 м    9/0 верхняя 
[Ci]
+21.7 +6.6 38 +22  998.9  -1.2  726  270           
06 12.09.15 240 (ЮЗ) 2{11}  20000 м    10/4 2000 м средняя, верхняя 
[Ac lent|Cs]
+23.5 +7.3 35 +24  997.3  -1.3  725  268           
09 12.09.15 250 (З) 20000 м    10/4 600 м средняя, верхняя 
[Cu med, cong|Ac lent|Cs]
+26 +7.4 31 +26  995.4  -1.7  723  265           
12 12.09.15 040 (СВ) 20000 м    10/4 600 м кучево-дожд., средняя 
[Cb cap|As op]
+17.9 +12.1 69 +24  996.9  0.8  724  271    +26.2       
15 12.09.15 360 (С) 4000 м  слаб. ливневой дождь  10/8 600 м кучево-дожд., средняя 
[Cb cap|As op]
+13.3 +10.4 83 +17  999.7  2.1  726  277           
18 12.09.15 тихо ()   4000 м  в посл. час ливневой дождь  10/8 600 м кучево-дожд., средняя 
[Cb cap|Ac As]
+11.2 +10 92 +13  998  -1.8  724  278           
21 12.09.15 тихо ()   4000 м  слаб. ливневой дождь  10/10 600 м кучево-дожд. 
[Cb cap]
+10.2 +9.4 95 +11  997.4  -0.7  724  279           
00 13.09.15 тихо ()   10 км  в посл. час ливневой дождь  10/6 600 м кучево-дожд., средняя 
[Cb cap|Ac As]
+10 +9.4 96 +11  996.1  -1.4  723  279  +9.8      влажная 
03 13.09.15 240 (ЮЗ) 20000 м  в посл. час ливневой дождь  10/4 600 м кучево-дожд., средняя 
[Cb cap|Ac As]
+14.5 +9.9 74 +17  995.4  -0.1  723  275           
06 13.09.15 240 (ЮЗ) 20000 м  слаб. ливневой дождь  10/10 600 м кучево-дожд. 
[Cb cap]
+12.6 +11.1 91 +16  996.6  0.9  723  276           
09 13.09.15 300 (СЗ) 20000 м  слаб. ливневой дождь  10/10 600 м кучево-дожд. 
[Cb cap]
+9.8 +8.2 90 +10  1000.6  3.6  726  281           
12 13.09.15 260 (З) 20000 м  {ливн. осадки}  10/10 600 м кучево-дожд. 
[Cb cap]
+7.3 +4.8 84 +8  1005.1  729  285    +15.2     
15 13.09.15 250 (З) 4000 м  слаб. ливневой дождь  10/10 600 м кучево-дожд. 
[Cb cap]
+5.9 +5 94 +7  1008.3  731  288           
18 13.09.15 250 (З) 4000 м  слаб. ливневой дождь  10/10 600 м кучево-дожд. 
[Cb cap]
+5.2 +4 92 +6  1010.2  1.7  733  289           
21 13.09.15 230 (ЮЗ) 4000 м  в посл. час ливневой дождь  8/3 600 м кучево-дожд., средняя 
[Cb cap|Ac trans]
+4.2 +2.2 87 +4  1011.3  733  291           
00 14.09.15 230 (ЮЗ) 20000 м  в посл. час ливневой дождь  9/9 600 м 
+3.7 +1.1 83 +3  1012.1  0.6  734  291  +3.7    0.6    влажная 
06 14.09.15 240 (ЮЗ) 2{10}  20000 м  слаб. ливневой дождь  10/10 600 м кучево-дожд. 
[Cb cap]
+7.8 -0.7 55 +8  1011.6  -0.5  734  287           
09 14.09.15 210 (ЮЗ) 20000 м  {ливн. осадки}  9/5 600 м кучево-дожд., верхняя 
[Cb cap|Ci fib]
+8.5 +1.4 61 +8  1011.5  734  286           
12 14.09.15 тихо ()   20000 м  {ливн. осадки}  10/3 600 м кучево-дожд., средняя 
[Cb cap|Ac As]
+7 +2.7 74 +7  1011.7  0.1  734  288    +9  0.0     
15 14.09.15 220 (ЮЗ) 4000 м    10/3 600 м кучево-дожд., средняя, верхняя 
[Cb cap|Ac lent|Cs]
+6 +2.1 76 +5  1012  0.1  734  289           
18 14.09.15 220 (ЮЗ) 4000 м  слаб. ливневой дождь  9/6 600 м кучево-дожд., верхняя 
[Cb cap|Ci fib]
+5.4 +4.2 92 +5  1012.2  0.1  734  289           
21 14.09.15 280 (З) 4000 м  слаб. ливневой дождь со снегом  10/10 600 м кучево-дожд. 
[Cb cap]
+2 +0.1 87 +3  1015  2.4  736  294           
00 15.09.15 220 (ЮЗ) 20000 м  {ливн. осадки}  9/8 600 м кучево-дожд., верхняя 
[Cb cap|Ci fib]
+0.5 -0.6 92 +1  1018.3  738  297  +0    0.9    влажная 
03 15.09.15 230 (ЮЗ) 20000 м  в посл. час ливневой снег  9/8 600 м кучево-дожд., верхняя 
[Cb cap|Ci fib]
+2.5 -1.1 77 +1  1019.6  1.4  739  295           
06 15.09.15 240 (ЮЗ) 20000 м  в посл. час ливневой снег  9/8 600 м кучево-дожд., верхняя 
[Cb cap|Ci fib]
+6.1 -0.4 63 +5  1019.2  0.1  739  291           
09 15.09.15 230 (ЮЗ) 4{13}  20000 м    9/8 600 м кучево-дожд., верхняя 
[Cb cap|Ci fib]
+6.4 -2.4 53 +5  1019.7  0.5  740  291           
12 15.09.15 230 (ЮЗ) 20000 м  в посл. час ливневой дождь  10/10 600 м кучево-дожд. 
[Cb cap]
+5.6 -1.7 59 +5  1019.7  -0.1  739  292    +7.5  0.0     
15 15.09.15 230 (ЮЗ) 4000 м  слаб. ливневой дождь  8/4 600 м кучево-дожд., верхняя 
[Cb cap|Ci fib]
+3.2 +1.1 86 +2  1020.3  0.3  740  294           
18 15.09.15 260 (З) 4000 м  слаб. ливневой дождь  10/10 600 м кучево-дожд. 
[Cb cap]
+3 +1.7 91 +2  1020.6  0.3  740  295           
21 15.09.15 220 (ЮЗ) 4000 м  слаб. ливневой дождь  10/6 600 м кучево-дожд., верхняя 
[Cb cap|Cs]
+2.4 +1.4 93 +1  1020.1  -0.6  739  295           
00 16.09.15 220 (ЮЗ) 10 км  ливневой дождь  10/10 600 м кучево-дожд. 
[Cb cap]
+2.8 +1.8 93 +1  1018.7  -1.3  738  294  +2      влажная 
03 16.09.15 230 (ЮЗ) 20000 м  слаб. ливневой дождь  10/10 600 м кучево-дожд. 
[Cb cap]
+3.9 +3.2 95 +3  1018.8  0.3  739  293           
06 16.09.15 240 (ЮЗ) 20000 м  {ливн. осадки}  8/8 600 м кучево-дожд. 
[Cb cap]
+6.5 +3.2 79 +6  1018.4  -0.2  739  290           
09 16.09.15 220 (ЮЗ) 2{12}  20000 м    10/8 600 м кучево-дожд., средняя 
[Cb cap|Ac As]
+8.4 +2.2 65 +8  1016.5  -1.6  737  288           
12 16.09.15 220 (ЮЗ) 3{10}  20000 м  слаб. ливневой дождь  10/10 600 м кучево-дожд. 
[Cb cap]
+6.9 +2.6 74 +6  1014.8  -1.7  736  289    +8.6     
18 16.09.15 220 (ЮЗ) 4000 м  слаб. ливневой дождь  10/10 600 м кучево-дожд. 
[Cb cap]
+6.1 +3.7 85 +5  1010.1  -2.8  733  288           
00 17.09.15 250 (З) 2{10}  20000 м  {ливн. осадки}  6/3 600 м кучево-дожд., средняя 
[Cb cap|Ac trans]
+1.6 +0.8 94 +1  1014  2.8  735  294  +1.4      влажная 
06 17.09.15 270 (З) 3{10}  20000 м  {ливн. осадки}  9/9 600 м кучево-дожд. 
[Cb cap]
+6.9 +0.6 64 +6  1023.3  3.9  742  292           
12 17.09.15 240 (ЮЗ) 20000 м  {ливн. осадки}  3/3 600 м кучево-дожд. 
[Cb cap]
+4.2 +1.7 84 +4  1025.8  0.4  744  295    +7.7  0.0     
15 17.09.15 230 (ЮЗ) 4000 м    3/3 600 м кучево-дожд., средняя 
[Cb cap|Ac lent]
+3.2 +1.1 86 +3  1026.1  0.1  744  296           
18 17.09.15 тихо ()   4000 м    10/10 600 м кучево-дожд. 
[Cb cap]
+2.4 +0.8 89 +2  1025.8  -0.3  744  297           
21 17.09.15 тихо ()   4000 м    8/8 600 м кучево-дожд. 
[Cb cap]
+3 +1.5 90 +3  1024.6  -1  743  296           
00 18.09.15 230 (ЮЗ) 20000 м    9/6 600 м кучево-дожд., верхняя 
[Cb cap|Ci fib]
+1.2 +0.4 94 +2  1024.2  -0.6  742  298  +1.2        влажная 
03 18.09.15 060 (СВ) 20000 м    9/5 600 м кучево-дожд., средняя, верхняя 
[Cb cap|Ac trans|Ci fib]
+4.3 +1.5 82 +5  1023.8  -0.1  742  294           
06 18.09.15 060 (СВ) 20000 м    8/8 600 м кучево-дожд. 
[Cb cap]
+6.8 +1 67 +8  1022.1  -1.3  741  291           
09 18.09.15 080 (В) 20000 м    8/8 600 м кучево-дожд. 
[Cb cap]
+8.4 +0.7 58 +9  1020.8  -1.1  740  289           
12 18.09.15 тихо ()   20000 м    8/4 600 м кучево-дожд., средняя, верхняя 
[Cb cap|Ac trans|Ci fib]
+5.4 +0.8 72 +5  1021.2  0.1  741  292    +9.1       
15 18.09.15 230 (ЮЗ) 4000 м    9/8 2000 м средняя, верхняя 
[Ac trans|Ci fib]
+0.6 -0.5 92 +1  1022.2  0.3  741  298           
18 18.09.15 тихо ()   4000 м    9/5 600 м средняя 
[Cu med, cong|Ac trans]
+0.8 -0.3 92 +1  1021.7  -0.5  740  297           
21 18.09.15 250 (З) 4000 м    9/9 1000 м 
[Sc diur, vesp]
+0 -0.6 96 +1  1021.2  -0.5  740  298           
00 19.09.15 тихо ()   20000 м    9/9 600 м 
[Sc diur, vesp]
-0.4 -1 96 -0  1021.5  0.2  740  299  -0.7        замёрзшая 
03 19.09.15 060 (СВ) 20000 м    9/5 600 м кучево-дожд., средняя 
[Cb cap|Ac trans]
+3.1 +1 86 +4  1021.3  0.3  740  295           
06 19.09.15 080 (В) 20000 м    8/5 600 м кучево-дожд., средняя 
[Cb cap|Ac trans]
+8 +0.2 58 +8  1019.6  -1.1  740  289           
09 19.09.15 060 (СВ) 20000 м    8/6 600 м кучево-дожд., средняя 
[Cb cap|Ac trans]
+8.2 -1.2 51 +9  1018.7  -0.9  739  289           
12 19.09.15 240 (ЮЗ) 20000 м    8/4 600 м кучево-дожд., средняя 
[Cb cap|Ac trans]
+4.6 -0.2 71 +5  1019.2  0.1  739  293    +9.4       
15 19.09.15 250 (З) 4000 м    3/3 2000 м средняя 
[Ac trans]
+0 -1.8 88 +1  1019.7  739  298           
18 19.09.15 240 (ЮЗ) 4000 м    3/0 верхняя 
[Ci fib]
-1.1 -2 93 -1  1019  -0.9  738  299           
21 19.09.15 240 (ЮЗ) 4000 м    3/3 2000 м средняя 
[Ac trans]
-2.3 -2.9 96 -2  1018.2  -0.9  738  300           
00 20.09.15 220 (ЮЗ) 20000 м    8/3 2000 м средняя, верхняя 
[Ac trans|Ci fib]
-2.8 -3.2 97 -2  1017.7  -0.5  737  300  -3        замёрзшая 
03 20.09.15 090 (В) 20000 м    9/4 2000 м средняя, верхняя 
[Ac trans|Ci fib]
+3.6 -1.4 70 +4  1016.2  -0.8  737  293           
06 20.09.15 080 (В) 20000 м    10/5 2000 м средняя, верхняя 
[Ac trans|Cs]
+9.7 +0 51 +10  1013.2  -2.1  735  286           
09 20.09.15 090 (В) 20000 м    10/3 600 м кучево-дожд., средняя, верхняя 
[Cb cap|Ac trans|Cs]
+11.5 -0.3 44 +12  1011  -1.9  734  284           
12 20.09.15 100 (В) 20000 м    10/6 600 м кучево-дожд., средняя 
[Cb cap|Ac As]
+9.8 +2.3 60 +11  1009.6  -1.4  733  285    +11.8       
15 20.09.15 тихо ()   4000 м  слаб. ливневой дождь  10/8 600 м кучево-дожд., средняя 
[Cb cap|Ac As]
+6.7 +5.3 91 +7  1009.1  -1  732  287           
18 20.09.15 тихо ()   4000 м  слаб. ливневой дождь  10/10 600 м кучево-дожд. 
[Cb cap]
+5.2 +4.5 95 +5  1006.8  -2.4  730  288           
21 20.09.15 тихо ()   4000 м  слаб. ливневой дождь  10/10 600 м кучево-дожд. 
[Cb cap]
+5.1 +4.6 97 +5  1005.3  -1.4  729  288           
00 21.09.15 тихо ()   10 км  слаб. ливневой дождь  10/10 600 м кучево-дожд. 
[Cb cap]
+5.5 +5 97 +6  1004.4  -0.8  728  287  +5.1       
03 21.09.15 тихо ()   0500 м  туман{ливн. осадки}  9/8 600 м кучево-дожд., средняя 
[Cb cap|Ac trans]
+6.7 +6.3 97 +7  1003.6  -0.7  728  285           
06 21.09.15 080 (В) 4000 м  дымка{ливн. осадки, туман}  10/10 600 м кучево-дожд. 
[Cb cap]
+9.2 +7.7 90 +10  1001.6  -1.6  727  282           
09 21.09.15 070 (В) 10 км    10/10 600 м кучево-дожд. 
[Cb cap]
+10.8 +7.9 82 +12  1000.5  -0.9  726  280           
12 21.09.15 060 (СВ) 20000 м  {ливн. осадки}  10/10 600 м кучево-дожд. 
[Cb cap]
+9.6 +7.9 89 +11  1000.4  -0.2  726  281    +10.9     
15 21.09.15 тихо ()   4000 м    10/10 600 м кучево-дожд. 
[Cb cap]
+8.6 +7.3 92 +9  999.5  -1  725  282           
18 21.09.15 тихо ()   н/о  ливневой дождь  10/10 600 м кучево-дожд. 
[Cb cap]
+7.8 +7.4 97 +8  998.4  -1.1  724  282           
21 21.09.15 тихо ()   н/о  слаб. ливневой дождь  10/10 600 м кучево-дожд. 
[Cb cap]
+6.9 +6.5 97 +7  998.2  -0.4  724  283           
00 22.09.15 тихо ()   0500 м    10/10 600 м кучево-дожд. 
[Cb cap]
+7 +7 100 +7  998.3  0.1  724  283  +6.8       
06 22.09.15 240 (ЮЗ) 20000 м  {ливн. осадки, туман}  9/8 600 м кучево-дожд., средняя, верхняя 
[Cb cap|Ac trans|Ci fib]
+9.3 +5.6 78 +8  1001  2.2  726  282           
12 22.09.15 270 (З) 20000 м  слаб. ливневой дождь  10/10 600 м кучево-дожд. 
[Cb cap]
+5.1 +2.1 81 +6  1007.8  2.6  731  289    +9.8     
15 22.09.15 260 (З) 4000 м  слаб. ливневой дождь  9/8 600 м кучево-дожд., средняя 
[Cb cap|Ac trans]
+4.3 +2.8 90 +5  1010.2  2.2  732  290           
18 22.09.15 260 (З) 4000 м  слаб. ливневой дождь  10/10 600 м кучево-дожд. 
[Cb cap]
+3.2 +1.4 88 +3  1012.1  1.7  734  292           
21 22.09.15 240 (ЮЗ) 4000 м  {ливн. осадки}  8/3 600 м кучево-дожд., средняя 
[Cb cap|Ac trans]
+3 +1.7 91 +2  1012.1  1.1  735  292           
00 23.09.15 240 (ЮЗ) 20000 м  {ливн. осадки}  9/6 600 м кучево-дожд., средняя 
[Cb cap|Ac trans]
+3.6 +1.6 87 +3  1015.5  2.1  736  292  +2.9    0.7     
03 23.09.15 240 (ЮЗ) 20000 м  в посл. час ливневой дождь  9/8 600 м кучево-дожд., средняя 
[Cb cap|Ac trans]
+5.4 +2.5 82 +5  1016.2  737  291           
06 23.09.15 240 (ЮЗ) 20000 м  в посл. час ливневой дождь  9/6 600 м кучево-дожд., верхняя 
[Cb cap|Ci fib]
+7.4 +1.3 65 +7  1015.7  -0.3  737  289           
09 23.09.15 220 (ЮЗ) 20000 м  в посл. час ливневой дождь  6/5 600 м кучево-дожд., верхняя 
[Cb cap|Ci fib]
+7.3 +2.2 70 +8  1015.4  -0.3  736  289           
12 23.09.15 200 (Ю) 20000 м  {ливн. осадки}  10/4 600 м кучево-дожд., средняя 
[Cb cap|Ac As]
+5.2 +2.2 81 +6  1015  -0.5  736  291    +8.2  0.0     
15 23.09.15 180 (Ю) 4000 м    10/6 600 м кучево-дожд., средняя 
[Cb cap|Ac As]
+3.4 +1.9 90 +4  1014  -1.3  735  292           
18 23.09.15 тихо ()   4000 м    9/0 верхняя 
[Ci fib]
+2.8 +0.7 86 +3  1012.5  -1.5  734  293           
21 23.09.15 200 (Ю) 4000 м    9/5 600 м кучево-дожд., верхняя 
[Cb cap|Ci fib]
+4.2 +0.3 76 +4  1011.5  -0.7  733  291           
00 24.09.15 тихо ()   20000 м    10/8 600 м кучево-дожд., верхняя 
[Cb cap|Cs]
+2.8 +1.2 89 +3  1011.4  -0.3  733  292  +2.5         
03 24.09.15 тихо ()   20000 м  в посл. час ливневой дождь  10/8 600 м кучево-дожд., средняя 
[Cb cap|Ac As]
+4.9 +2.7 86 +5  1011.4  0.4  733  290           
06 24.09.15 100 (В) 20000 м  слаб. ливневой дождь  10/10 600 м кучево-дожд. 
[Cb cap]
+7.6 +2.9 72 +9  1010.8  -0.3  733  287           
09 24.09.15 230 (ЮЗ) 10 км  слаб. ливневой дождь  10/10 600 м кучево-дожд. 
[Cb cap]
+5 +3.8 92 +5  1012.3  1.1  734  290           
12 24.09.15 230 (ЮЗ) 20000 м  {ливн. осадки}  9/5 600 м кучево-дожд., средняя, верхняя 
[Cb cap|Ac lent|Ci fib]
+3 +2.2 94 +2  1015.3  2.7  736  293    +7.7     
15 24.09.15 050 (СВ) 4000 м    10/5 600 м кучево-дожд., средняя 
[Cb cap|Ac As]
+2.1 +1.6 96 +3  1016.7  1.2  737  294           
18 24.09.15 тихо ()   4000 м    10/4 2000 м средняя, верхняя 
[Ac lent|Cs]
+1.2 +1.2 100 +1  1017.2  0.4  737  296           
21 24.09.15 тихо ()   4000 м    10/4 2000 м средняя, верхняя 
[Ac lent|Cs]
+1.2 +0.9 98 +1  1018.3  1.1  738  296           
00 25.09.15 тихо ()   20000 м    10/3 600 м кучево-дожд., средняя, верхняя 
[Cb cap|Ac lent|Cs]
+1.4 +1.1 98 +1  1019.5  1.1  739  296  +0         
03 25.09.15 210 (ЮЗ) 20000 м    10/4 600 м кучево-дожд., верхняя 
[Cb cap|Cs]
+3.3 +0.7 83 +4  1021.1  1.7  740  295           
06 25.09.15 250 (З) 20000 м    10/8 600 м кучево-дожд., верхняя 
[Cb cap|Cs]
+5.4 +0.8 72 +5  1021.7  0.8  741  293           
09 25.09.15 290 (З) 20000 м  слаб. ливневой дождь  10/10 600 м кучево-дожд. 
[Cb cap]
+5.6 +1.6 75 +6  1022.5  0.8  741  292           
12 25.09.15 тихо ()   20000 м  {ливн. осадки}  10/3 600 м средняя, верхняя 
[Cu hum|Ac trans|Cs]
+3.2 +1.9 91 +3  1024.1  1.3  742  295    +5.9  0.4     
15 25.09.15 240 (ЮЗ) 4000 м    9/5 2000 м средняя, верхняя 
[Ac trans|Ci fib]
+0.3 -0.3 96 +1  1025.7  1.1  743  299           
18 25.09.15 тихо ()   4000 м    8/4 2000 м средняя, верхняя 
[Ac trans|Ci fib]
-0.2 -0.5 98 -0  1025.9  0.1  743  300           
21 25.09.15 230 (ЮЗ) 4000 м    9/9 2000 м средняя 
[Ac trans]
-0.7 -1 98 1026.2  0.3  744  300           
00 26.09.15 100 (В) 13  20000 м    8/8 2000 м средняя, верхняя 
[Ac lent|Ci fib]
-1.6   1026.8  0.5  744    -1.9         
03 26.09.15 тихо ()   20000 м    10/6 600 м кучево-дожд., средняя 
[Cb cap|Ac As]
+1.8 +1.3 97 +2  1027.6  1.3  745  298           
06 26.09.15 030 (СВ) 20000 м    9/5 600 м кучево-дожд., средняя, верхняя 
[Cb cap|Ac trans|Ci fib]
+6.2 +1.2 70 +7  1026.9  -0.2  745  293           
09 26.09.15 тихо ()   20000 м    8/8 600 м кучево-дожд. 
[Cb cap]
+6.8 +0.1 62 +7  1026.5  -0.4  744  293           
12 26.09.15 тихо ()   20000 м    9/5 600 м кучево-дожд., средняя, верхняя 
[Cb cap|Ac lent|Ci fib]
+4.6 +1.8 82 +5  1027.2  0.4  745  295    +7.3       
15 26.09.15 тихо ()   4000 м    9/5 600 м кучево-дожд., средняя, верхняя 
[Cb cap|Ac trans|Ci fib]
+2.1 +1.3 95 +2  1028.3  0.8  745  298           
18 26.09.15 тихо ()   4000 м    9/9 600 м кучево-дожд. 
[Cb cap]
+1.4 +0.9 96 +1  1028.4  745  299           
21 26.09.15 тихо ()   н/о  дымка  10/10 600 м кучево-дожд. 
[Cb cap]
+1.2 +0.7 96 +1  1028.2  -0.2  745  299           
00 27.09.15 тихо ()   0500 м  туман  10/5 600 м кучево-дожд., средняя 
[Cb cap|Ac As]
+1.5 +0.7 94 +2  1028.4  0.2  745  299  +0.8         
03 27.09.15 020 (С) 4000 м  дымка{туман}  10/6 600 м кучево-дожд., средняя 
[Cb cap|As op]
+3.1 +1.8 91 +4  1028.3  0.1  745  297           
06 27.09.15 060 (СВ) 4000 м  дымка{туман}  10/10 600 м кучево-дожд. 
[Cb cap]
+4.7 +2.7 87 +6  1027.7  -0.3  745  295           
09 27.09.15 030 (СВ) 20000 м    6/6 600 м кучево-дожд. 
[Cb cap]
+7.3 +1.1 65 +8  1026.5  -0.9  745  292           
12 27.09.15 250 (З) 20000 м    6/6 600 м кучево-дожд. 
[Cb cap]
+3.6 +1.3 85 +4  1027.4  0.4  745  296    +7.6       
15 27.09.15 260 (З) 4000 м    8/8 600 м кучево-дожд. 
[Cb cap]
+2.2 +1.1 92 +3  1028.6  746  298           
18 27.09.15 240 (ЮЗ) 4000 м    4/0 верхняя 
[Ci fib]
-0.4 -1 96 1029.4  0.4  746  301           
21 27.09.15 250 (З) 4000 м    8/4 2000 м средняя, верхняя 
[Ac lent|Ci fib]
-1 -1 100 1029.4  746  302           
00 28.09.15 тихо ()   20000 м    10/4 600 м кучево-дожд., средняя 
[Cb cap|Ac As]
-0.4 -0.4 100 -0  1030.3  0.9  747  301  -1.5         
03 28.09.15 тихо ()   10 км    10/10 600 м кучево-дожд. 
[Cb cap]
+2.5 +2.2 98 +3  1031.3  1.3  748  298           
06 28.09.15 050 (СВ) 20000 м    8/8 600 м кучево-дожд., средняя 
[Cb cap|Ac trans]
+5 +2.5 84 +6  1031.5  0.3  748  295           
09 28.09.15 тихо ()   20000 м    9/6 600 м кучево-дожд., средняя 
[Cb cap|Ac trans]
+6.4 +2 73 +6  1030.3  -0.7  747  294           
12 28.09.15 240 (ЮЗ) 20000 м    9/8 600 м кучево-дожд., средняя 
[Cb cap|Ac trans]
+4.8 +2.1 83 +6  1030.8  0.3  747  296    +6.9       
15 28.09.15 240 (ЮЗ) 4000 м    8/3 600 м кучево-дожд., средняя 
[Cb cap|Ac trans]
+3.6 +1.3 85 +4  1031.5  0.4  748  297           
18 28.09.15 220 (ЮЗ) 4000 м    6/6 2000 м средняя 
[Ac trans]
+3 -1.1 75 +1  1030.6  -0.8  747  298           
21 28.09.15 220 (ЮЗ) 4000 м    5/3 2000 м средняя, верхняя 
[Ac trans|Ci fib]
+3.3 -0.5 76 +1  1029.2  -1.4  746  297           
00 29.09.15 210 (ЮЗ) 20000 м    9/3 2000 м средняя, верхняя 
[Ac trans|Ci fib]
+2.4 -1.9 73 +2  1028  -1.3  745  298  +2.2         
03 29.09.15 230 (ЮЗ) 20000 м    10/0 верхняя 
[Cs]
+6.9 -2 53 +6  1025.4  -2  744  292           
06 29.09.15 230 (ЮЗ) 3{15}  20000 м  слаб. ливневой дождь  10/10 600 м кучево-дожд. 
[Cb cap]
+7.7 -3.3 46 +7  1022.8  -2.4  742  291           
12 29.09.15 230 (ЮЗ) 3{13}  4000 м  слаб. крупа{ливн. осадки}  10/10 600 м кучево-дожд. 
[Cb cap]
+2.9 +0.8 86 +2  1021.1  -0.8  740  295    +8     
18 29.09.15 250 (З) 3-11{13}  4000 м  слаб. ливневой дождь  10/10 600 м кучево-дожд. 
[Cb cap]
+2.6 +1.3 91 +1  1020.8  0.2  740  295           
00 30.09.15 290 (З) 20000 м  слаб. ливневой дождь со снегом  10/8 600 м кучево-дожд., верхняя 
[Cb cap|Ci fib]
+1.2 +0.4 94 +2  1023.8  1.6  739  296  +1       
06 30.09.15 290 (З) 20000 м  {ливн. осадки}  10/10 600 м кучево-дожд. 
[Cb cap]
+1.2 -2.3 77 +2  1023.1  -1.1  742  298           
09 30.09.15 290 (З) 20000 м    10/8 600 м кучево-дожд., верхняя 
[Cb cap|Cs]
+0.4 -4.3 71 +1  1022.5  -0.7  741  299           
12 30.09.15 тихо ()   20000 м    8/5 600 м кучево-дожд., средняя, верхняя 
[Cb cap|Ac trans|Ci fib]
-1.4 -5 76 -1  1023.9  1.1  742  301    +1.4  0.3     
15 30.09.15 250 (З) 4000 м    9/3 600 м кучево-дожд., средняя, верхняя 
[Cb cap|Ac trans|Ci fib]
-2 -4.8 81 -1  1024.4  0.4  742  302           
18 30.09.15 тихо ()   4000 м    10/4 2000 м средняя, верхняя 
[Ac trans|Cs]
-2.2 -3.7 89 -2  1023.7  -0.7  742  302           
21 30.09.15 тихо ()   4000 м    9/6 600 м кучево-дожд., средняя 
[Cb cap|Ac trans]
-1.8 -2.9 92 -2  1022  -1.5  740  301           
00 01.10.15 тихо ()   20000 м    10/10 600 м кучево-дожд. 
[Cb cap]
-1.6 -3 90 -2  1021  -1  740  300  -2.8         
03 01.10.15 110 (В) 20000 м  в посл. час ливневой снег  10/10 600 м кучево-дожд. 
[Cb cap]
-0.2 -2.6 84 1018.8  -2  738  298           
06 01.10.15 110 (В) 10 км  слаб. ливневой дождь  10/10 600 м кучево-дожд. 
[Cb cap]
+0.5 -0.3 94 +1  1015.9  -2.7  736  296           
09 01.10.15 100 (В) 2000 м  дымка{ливн. осадки}  10/10 300 м кучево-дожд. 
[Cb cap]
+2.1 +1.6 96 +3  1012.8  -2.8  734  293           
12 01.10.15 тихо ()   4000 м  слаб. ливневой дождь  9/8 600 м кучево-дожд., средняя 
[Cb cap|Ac trans]
+2.8 +2.3 97 +3  1011.2  -1.4  733  292    +2.9     
15 01.10.15 220 (ЮЗ) 4000 м  {ливн. осадки}  9/4 600 м кучево-дожд., средняя, верхняя 
[Cb cap|Ac trans|Ci fib]
+10 +6.6 79 +9  1008.4  -1.9  732  283           
18 01.10.15 220 (ЮЗ) 4{10}  4000 м  слаб. ливневой дождь  10/10 600 м кучево-дожд. 
[Cb cap]
+8.9 +7.6 92 +8  1007.6  -0.8  731  284           
00 02.10.15 220 (ЮЗ) 4{10}  20000 м  {ливн. осадки}  10/6 600 м кучево-дожд., средняя, верхняя 
[Cb cap|Ac trans|Cs]
+11 +8.6 85 +10  1005.8  -0.6  730  281  +2.2       
03 02.10.15 290 (З) 20000 м    10/10 600 м кучево-дожд. 
[Cb cap]
+11.2 +8.8 85 +12  1006.6  0.8  730  281           
06 02.10.15 240 (ЮЗ) 20000 м  слаб. ливневой дождь  10/8 600 м кучево-дожд., средняя 
[Cb cap|Ac As]
+12.6 +9.2 80 +14  1005.6  -0.8  730  279           
09 02.10.15 230 (ЮЗ) 20000 м  {ливн. осадки}  10/8 600 м кучево-дожд., средняя 
[Cb cap|Ac As]
+11.3 +8.9 85 +11  1005.2  -0.5  729  281           
12 02.10.15 260 (З) 2{10}  4000 м  в посл. час ливневой дождь{гроза}  10/10 600 м кучево-дожд. 
[Cb cap]
+7.8 +6.9 94 +8  1008.4  2.3  731  285    +13.6     
15 02.10.15 230 (ЮЗ) 4000 м    8/4 600 м кучево-дожд., средняя 
[Cb cap|Ac trans]
+3.4 +2.1 91 +4  1012.9  4.1  734  292           
18 02.10.15 тихо ()   4000 м    ясно 
+0.4 +0.1 98 1014.3  1.1  735  296           
21 02.10.15 тихо ()   4000 м    3/0 верхняя 
[Ci fib]
+0.9 +0.1 94 +1  1014.5  0.3  735  295           
00 03.10.15 тихо ()   4000 м  дымка  8/0 верхняя 
[Ci fib]
-2.2 -2.5 98 -2  1014.7  -0.3  735  299  -2.2         
06 03.10.15 110 (В) 20000 м  {туман}  9/6 2000 м средняя, верхняя 
[Ac trans|Ci fib]
+5.6 +2.4 80 +6  1010.2  -2.5  733  289           
09 03.10.15 070 (В) 20000 м    9/4 2000 м средняя, верхняя 
[Ac trans|Ci fib]
+9.5 +5.6 77 +11  1007.3  -2.2  731  284           
12 03.10.15 220 (ЮЗ) 4000 м    9/6 600 м кучево-дожд., средняя, верхняя 
[Cb cap|Ac trans|Ci fib]
+6.4 +5.5 94 +7  1006.4  -1.4  730  286    +10.1       
15 03.10.15 тихо ()   4000 м  {ливн. осадки}  4/0 верхняя 
[Ci fib]
+4.9 +4.7 99 +5  1003.6  -2.8  728  287           
18 03.10.15 210 (ЮЗ) 4000 м  {ливн. осадки}  9/6 2000 м средняя, верхняя 
[Ac trans|Ci fib]
+12 +5.3 64 +12  999.8  -2.9  726  279           
21 03.10.15 220 (ЮЗ) 4000 м  слаб. ливневой дождь  8/6 600 м кучево-дожд., средняя 
[Cb cap|Ac trans]
+11.9 +4.4 60 +12  997.5  -2.2  724  279           
00 04.10.15 230 (ЮЗ) 20000 м  в посл. час ливневой дождь  10/10 600 м кучево-дожд. 
[Cb cap]
+9.3 +7.4 88 +10  998.6  0.8  725  281  +4.8    0.8     
03 04.10.15 230 (ЮЗ) 4{11}  20000 м    8/3 600 м кучево-дожд., средняя, верхняя 
[Cb cap|Ac trans|Ci fib]
+10.7 +4 63 +10  999.9  1.4  726  281           
06 04.10.15 230 (ЮЗ) 5-11{11}  20000 м    9/5 600 м кучево-дожд., средняя, верхняя 
[Cb cap|Ac trans|Ci fib]
+11.7 +1.9 51 +11  999.2  -0.6  725  280           
12 04.10.15 200 (Ю) 4000 м  {ливн. осадки}  9/8 600 м кучево-дожд., средняя, верхняя 
[Cb cap|Ac lent|Ci fib]
+10.7 +2.9 59 +12  991.7  -3.8  720  279    +12.5  0.0     
18 04.10.15 220 (ЮЗ) 3{11}  4000 м  {ливн. осадки}  9/6 600 м кучево-дожд., средняя 
[Cb cap|Ac trans]
+10.1 +5 71 +10  992.7  -0.2  720  279           
21 04.10.15 220 (ЮЗ) 4000 м    10/10 600 м кучево-дожд. 
[Cb cap]
+10.4 +3.8 64 +10  992.3  -0.4  720  279           
00 05.10.15 240 (ЮЗ) 3{12}  20000 м    10/6 600 м кучево-дожд., средняя, верхняя 
[Cb cap|Ac trans|Cs]
+9.5 +3 64 +9  992.8  0.4  720  280  +8.2       
Время (UTC), дата Ветер
(°,м/с) 
Видим.   Явления Облачность Т
(°С)
Тd
(°С)
f(%) Тe
(°С)
Pmin
(гПа)
dP
(гПа)
Po
(мм)
O2
(г/м3)
Тmin Tmax R s Состояние
почвы